Showing default

SMDC ONE 2.3, 39474

Orbit data source: Space-Track

SMDC ONE 2.3, 39474 is a payload satellite owned by SMDC (US) in LEO that was launched on Fri, 06 Dec 2013 UTC via an ATLAS V 501 launch vehicle from the Air Force Western Test Range (AFWTR). Payload-class satellites include a variety of spacecraft equipped with specific instruments for various scientific and technological missions. These include communications satellites like Starlink; space stations such as the ISS; scientific satellites like the Hubble; Earth observation satellites from companies like Planet Labs, Umbra, and HawkEye 360; GPS; miniature CubeSats for education and research; and military/defense satellites.

Loading next visibility...
Identifier
39474, 2013-072N
Orbit
LEO
Country
Flag of USUS
Related business
Manufacturer
Duocomm Miltec
Mission
Operational Defense Communications
Bus & Motor
CUBESAT 3U, Unknown motor
Mass
4 kg wet, 4 kg dry
Launch date (UTC)
2013-12-06 (12 years ago)
Launch vehicle
ATLAS V 501
Launch site
Air Force Western Test Range (AFWTR)
Object type
Payload
Rocket body
Debris
Shape & HBR
Box, 0.1 m
Radar Cross Section
0.075 m², Small (<0.1 m²)

Expand to show TLE details & history
Last TLE update: 9 hours ago

TLE from 9 hours ago
0 SMDC ONE 2.3
1 39474U 13072N   26095.18398939  .00076855  00000-0  10919-2 0  9995
2 39474 120.4510 198.7230 0066840 331.1146  28.6253 15.53211454106201
Epoch: 2026-04-05T04:24Z
TLE epoch observation values (Epoch: 2026-04-05T04:24:56.683Z)
Latitude
-0.00001°
Longitude
-61.00623°
Altitude
369.188 km
Speed
7.711 km/s
True Right ascension
13h 14m 53s
True Declination
0° 00' 00"
Sunlit
Object was in full shadow at epoch
Visualization orbit readout
Latitude
Unknown
Longitude
Unknown
Altitude
Unknown
Speed
Unknown
Apparent Right ascension
Unknown
Apparent Declination
Unknown
Sunlit
N/A
Visualization observer readout
Local Sidereal Time
19:25:31
Azimuth
Unknown
Elevation
Unknown
Doppler factor
Unknown
Orbital elements
Apogee altitude
451.966 km
Perigee altitude
361.267 km
Semi-major axis
6,784.753 km
Eccentricity
0.00668
Inclination
120.451°
RAAN
198.723°
Arg. of periapsis
331.1146°
True anomaly
28.99495°
Mean anomaly
28.6253°
Eccentric anomaly
28.80985°
Mean motion
3.88367 °/min
Orbital period
92.7 mins
BSTAR
0.0010919
Loading maneuver chart data...
Computing Atmospheric mass density...
Loading historical data...
Loading historical data...
Loading historical data...
Loading historical data...
Loading historical data...
Loading historical data...
Loading historical data...

Documentation

Showing up to 5 results
|